Location: Unspecified
(53.5511°N, 9.9937°E)
Time: 14:09:11
(UTC+00:00)

ISS - Visible Passes

Search period start: 24 August 2019 00:00
Search period end: 03 September 2019 00:00
Orbit: 410 x 421 km, 51.6° (Epoch: 25 August)

Date Brightness Start Highest point End Pass type
(mag) Time Alt. Az. Time Alt. Az. Time Alt. Az.
30 Aug -1.6 03:36:36 10° SSW 03:39:02 19° SSE 03:41:30 10° E visible
31 Aug -1.3 02:48:43 10° S 02:50:26 13° SE 02:52:11 10° ESE visible
01 Sep -2.5 03:34:48 10° SW 03:37:48 32° SSE 03:40:50 10° E visible
02 Sep -2.2 02:47:51 19° S 02:49:07 24° SSE 02:51:53 10° E visible
